CW3202 Weather Reports


Display with metric or nautical units.
time (UTC)temp
F
wind
direction
speed
MPH
gust
MPH
rain 1hr
in
rain 24hr
in
rain mn
in
humidity
%
barometer
mb
20260901044125 62 163 2.0 5.0 0.00 0.00 0.00 85 1009.1
20260901043624 62 162 1.0 4.0 0.00 0.00 0.00 84 1008.9
20260901042924 62 184 2.0 2.0 0.00 0.00 0.00 84 1008.7
20260901042424 62 179 2.0 2.0 0.00 0.00 0.00 83 1008.5
20260901041726 63 181 1.0 1.0 0.00 0.00 0.00 82 1008.4
20260901041224 63 181 0.0 1.0 0.00 0.00 0.00 80 1008.3
20260901040725 64 181 0.0 1.0 0.00 0.00 0.00 80 1008.4
20260901040224 64 181 0.0 2.0 0.00 0.00 0.00 80 1008.4
20260901035725 64 181 0.0 2.0 0.00 0.00 0.00 80 1008.4
20260901035225 65 181 2.0 3.0 0.00 0.00 0.00 78 1008.4
20260901034725 65 180 0.0 3.0 0.00 0.00 0.00 78 1008.4
20260901034225 66 184 1.0 1.0 0.00 0.00 0.00 77 1008.3
20260901033724 66 183 1.0 3.0 0.00 0.00 0.00 77 1008.3
20260901033224 66 185 1.0 3.0 0.00 0.00 0.00 76 1008.1
20260901032724 67 185 2.0 4.0 0.00 0.00 0.00 76 1008.1
20260901032025 68 184 1.0 4.0 0.00 0.00 0.00 75 1008.0
20260901031525 68 160 2.0 3.0 0.00 0.00 0.00 74 1007.9
20260901031025 69 181 3.0 3.0 0.00 0.00 0.00 73 1007.6
20260901030524 69 360 2.0 5.0 0.00 0.00 0.00 72 1007.7
20260901030024 70 189 2.0 5.0 0.00 0.00 0.00 72 1007.6
20260901025524 70 169 2.0 5.0 0.00 0.00 0.00 71 1007.6
20260901025024 71 175 4.0 5.0 0.00 0.00 0.00 70 1007.6
20260901024524 71 181 4.0 5.0 0.00 0.00 0.00 69 1007.4
20260901024024 72 163 2.0 7.0 0.00 0.00 0.00 68 1007.3
20260901023524 72 185 3.0 7.0 0.00 0.00 0.00 66 1007.3
20260901023024 73 170 5.0 5.0 0.00 0.00 0.00 65 1007.3
20260901022525 74 177 4.0 6.0 0.00 0.00 0.00 65 1007.3
20260901022025 75 152 3.0 7.0 0.00 0.00 0.00 63 1007.2
20260901021525 75 188 4.0 7.0 0.00 0.00 0.00 62 1007.0
20260901021024 76 202 1.0 6.0 0.00 0.00 0.00 56 1007.1
20260901020524 76 227 6.0 6.0 0.00 0.00 0.00 55 1007.0
20260901020024 77 219 4.0 6.0 0.00 0.00 0.00 56 1007.1
20260901014924 78 223 5.0 8.0 0.00 0.00 0.00 54 1007.0
20260901014425 78 208 6.0 8.0 0.00 0.00 0.00 54 1007.0
20260901013924 78 219 4.0 9.0 0.00 0.00 0.00 53 1006.9
20260901013425 78 194 4.0 9.0 0.00 0.00 0.00 52 1007.0
20260901012925 79 177 4.0 8.0 0.00 0.00 0.00 52 1007.0
20260901012424 80 211 5.0 7.0 0.00 0.00 0.00 53 1006.9
20260901011925 80 194 7.0 8.0 0.00 0.00 0.00 53 1006.9
20260901011424 80 198 5.0 10.0 0.00 0.00 0.00 51 1006.9
20260901010724 80 209 10.0 10.0 0.00 0.00 0.00 51 1006.8
20260901010225 81 202 5.0 6.0 0.00 0.00 0.00 50 1006.7
20260901005724 81 208 5.0 5.0 0.00 0.00 0.00 50 1006.9
20260901005225 81 232 2.0 7.0 0.00 0.00 0.00 50 1006.8
20260901004725 80 225 5.0 9.0 0.00 0.00 0.00 49 1006.8
20260901004224 81 233 6.0 10.0 0.00 0.00 0.00 50 1006.8
20260901003625 81 224 8.0 10.0 0.00 0.00 0.00 50 1006.8
20260901002925 81 192 7.0 9.0 0.00 0.00 0.00 51 1006.8
20260901002225 82 175 4.0 12.0 0.00 0.00 0.00 49 1006.8
20260901001724 82 197 9.0 12.0 0.00 0.00 0.00 49 1006.8
20260901001225 82 247 12.0 12.0 0.00 0.00 0.00 47 1006.8
20260901000725 82 263 3.0 8.0 0.00 0.00 0.00 46 1006.8
20260901000226 82 262 2.0 8.0 0.00 0.00 0.00 46 1006.8
20260831235724 82 262 3.0 7.0 0.00 0.00 0.00 47 1006.9
20260831235224 83 254 1.0 9.0 0.00 0.00 0.00 45 1006.8
20260831234725 83 261 3.0 9.0 0.00 0.00 0.00 45 1006.8
20260831234224 83 229 6.0 7.0 0.00 0.00 0.00 45 1006.9
20260831233724 84 309 7.0 7.0 0.00 0.00 0.00 44 1006.9
20260831233224 84 253 2.0 7.0 0.00 0.00 0.00 44 1006.9
20260831232724 84 227 1.0 3.0 0.00 0.00 0.00 45 1006.9
20260831232224 83 227 2.0 4.0 0.00 0.00 0.00 44 1007.0
20260831231724 83 241 1.0 4.0 0.00 0.00 0.00 45 1007.1
20260831231225 82 262 3.0 4.0 0.00 0.00 0.00 48 1007.0
20260831230724 82 300 0.0 4.0 0.00 0.00 0.00 45 1007.1
20260831230224 82 279 4.0 5.0 0.00 0.00 0.00 45 1007.1
20260831225724 82 246 2.0 9.0 0.00 0.00 0.00 45 1007.1
20260831225225 83 242 5.0 9.0 0.00 0.00 0.00 44 1007.1
20260831224725 83 305 2.0 7.0 0.00 0.00 0.00 44 1007.3
20260831224224 83 223 5.0 7.0 0.00 0.00 0.00 44 1007.4
20260831223724 84 261 2.0 5.0 0.00 0.00 0.00 43 1007.4
20260831223224 84 300 2.0 5.0 0.00 0.00 0.00 43 1007.4
20260831222725 83 223 4.0 5.0 0.00 0.00 0.00 45 1007.4
20260831222224 83 198 5.0 5.0 0.00 0.00 0.00 44 1007.4
20260831221724 84 223 3.0 5.0 0.00 0.00 0.00 43 1007.4
20260831221224 84 227 5.0 5.0 0.00 0.00 0.00 42 1007.6
20260831220724 83 173 2.0 6.0 0.00 0.00 0.00 43 1007.5
20260831220225 83 220 3.0 6.0 0.00 0.00 0.00 43 1007.7
20260831215725 83 223 6.0 6.0 0.00 0.00 0.00 43 1007.6
20260831215224 83 215 2.0 5.0 0.00 0.00 0.00 42 1007.6
20260831214725 84 237 4.0 5.0 0.00 0.00 0.00 43 1007.7
20260831214024 82 167 4.0 7.0 0.00 0.00 0.00 44 1007.8
20260831213524 82 277 2.0 7.0 0.00 0.00 0.00 44 1007.9
20260831213025 81 178 2.0 5.0 0.00 0.00 0.00 46 1007.9
20260831212525 81 213 4.0 5.0 0.00 0.00 0.00 46 1008.0
20260831212025 81 252 4.0 4.0 0.00 0.00 0.00 46 1008.0
20260831211524 81 264 3.0 3.0 0.00 0.00 0.00 46 1008.2
20260831211025 81 250 1.0 4.0 0.00 0.00 0.00 45 1008.2
20260831210525 81 252 3.0 4.0 0.00 0.00 0.00 46 1008.2
20260831205624 80 273 2.0 6.0 0.00 0.00 0.00 48 1008.4
20260831205124 80 13 3.0 6.0 0.00 0.00 0.00 50 1008.4
20260831204625 80 256 2.0 8.0 0.00 0.00 0.00 49 1008.5
20260831204125 79 240 3.0 8.0 0.00 0.00 0.00 47 1008.5
20260831203624 79 261 2.0 7.0 0.00 0.00 0.00 49 1008.6
20260831203124 79 284 4.0 6.0 0.00 0.00 0.00 49 1008.7
20260831202424 80 167 1.0 6.0 0.00 0.00 0.00 51 1008.8
20260831201924 80 207 6.0 6.0 0.00 0.00 0.00 50 1008.9
20260831201424 79 235 1.0 4.0 0.00 0.00 0.00 50 1008.9
20260831200925 79 178 2.0 3.0 0.00 0.00 0.00 50 1009.0
20260831200424 78 309 0.0 5.0 0.00 0.00 0.00 52 1009.1
20260831195924 78 280 3.0 5.0 0.00 0.00 0.00 53 1009.1
20260831195226 78 226 3.0 4.0 0.00 0.00 0.00 50 1009.1
20260831194724 78 180 1.0 4.0 0.00 0.00 0.00 52 1009.1
20260831194224 78 209 4.0 4.0 0.00 0.00 0.00 53 1009.2
20260831193726 78 267 2.0 4.0 0.00 0.00 0.00 52 1009.2
20260831193024 77 41 1.0 4.0 0.00 0.00 0.00 55 1009.3
20260831192525 77 96 3.0 4.0 0.00 0.00 0.00 55 1009.4
20260831192024 76 281 1.0 5.0 0.00 0.00 0.00 56 1009.6
20260831191525 75 302 1.0 5.0 0.00 0.00 0.00 55 1009.6
20260831191025 75 190 1.0 4.0 0.00 0.00 0.00 57 1009.6
20260831190525 76 281 3.0 4.0 0.00 0.00 0.00 56 1009.9
20260831190024 76 220 0.0 4.0 0.00 0.00 0.00 59 1010.0
20260831185125 75 28 3.0 4.0 0.00 0.00 0.00 60 1010.1
20260831184624 75 141 2.0 3.0 0.00 0.00 0.00 60 1010.1
20260831183925 73 134 0.0 4.0 0.00 0.00 0.00 64 1010.2
20260831183425 73 50 3.0 4.0 0.00 0.00 0.00 65 1010.2
20260831182924 72 159 2.0 4.0 0.00 0.00 0.00 66 1010.3
20260831182224 71 185 3.0 4.0 0.00 0.00 0.00 67 1010.5
20260831181725 71 34 3.0 4.0 0.00 0.00 0.00 66 1010.5
20260831181225 71 81 3.0 4.0 0.00 0.00 0.00 67 1010.6
20260831180724 71 55 2.0 4.0 0.00 0.00 0.00 66 1010.7
20260831180224 71 170 4.0 4.0 0.00 0.00 0.00 69 1010.7
20260831175724 69 177 1.0 2.0 0.00 0.00 0.00 72 1010.8
20260831175224 68 215 2.0 2.0 0.00 0.00 0.00 73 1010.9
20260831174524 67 216 2.0 2.0 0.00 0.00 0.00 74 1010.9
20260831174025 67 215 2.0 3.0 0.00 0.00 0.00 75 1010.9
20260831173524 66 245 2.0 4.0 0.00 0.00 0.00 77 1011.0
20260831173025 65 243 3.0 4.0 0.00 0.00 0.00 80 1011.0
20260831172524 64 219 1.0 2.0 0.00 0.00 0.00 83 1011.1
20260831172025 62 240 1.0 3.0 0.00 0.00 0.00 88 1011.2
20260831171524 61 240 1.0 3.0 0.00 0.00 0.00 91 1011.3
20260831170824 59 250 2.0 2.0 0.00 0.00 0.00 98 1011.4
20260831170324 58 251 0.0 2.0 0.00 0.00 0.00 100 1011.5
20260831165825 57 251 0.0 2.0 0.00 0.00 0.00 100 1011.5
20260831165324 56 251 2.0 2.0 0.00 0.00 0.00 100 1011.5
20260831164825 55 251 1.0 1.0 0.00 0.00 0.00 100 1011.5
20260831164325 54 251 1.0 2.0 0.00 0.00 0.00 100 1011.6
20260831163824 54 251 1.0 2.0 0.00 0.00 0.00 100 1011.7
20260831163124 53 251 0.0 2.0 0.00 0.00 0.00 100 1011.8
20260831162624 52 251 0.0 1.0 0.00 0.00 0.00 100 1011.8
20260831162124 52 251 0.0 2.0 0.00 0.00 0.00 100 1011.8
20260831161624 51 251 0.0 2.0 0.00 0.00 0.00 100 1011.9
20260831161124 51 251 2.0 2.0 0.00 0.00 0.00 100 1012.0
20260831160624 51 344 1.0 1.0 0.00 0.00 0.00 100 1012.0
20260831155924 50 344 0.0 1.0 0.00 0.00 0.00 100 1012.1
20260831155424 50 344 0.0 1.0 0.00 0.00 0.00 100 1012.1
20260831154924 50 344 0.0 2.0 0.00 0.00 0.00 100 1012.2
20260831154424 50 344 0.0 3.0 0.00 0.00 0.00 99 1012.2
20260831153924 50 344 2.0 3.0 0.00 0.00 0.00 100 1012.2
20260831153224 50 211 0.0 2.0 0.00 0.00 0.00 100 1012.3
20260831152725 50 211 1.0 1.0 0.00 0.00 0.00 100 1012.3
20260831152225 49 211 0.0 2.0 0.00 0.00 0.00 99 1012.4
20260831151725 49 360 1.0 2.0 0.00 0.00 0.00 99 1012.4
20260831151224 49 360 1.0 1.0 0.00 0.00 0.00 100 1012.4
20260831150724 49 360 1.0 1.0 0.00 0.00 0.00 100 1012.4
20260831150225 49 360 1.0 1.0 0.00 0.00 0.00 99 1012.4
20260831145725 48 360 0.0 2.0 0.00 0.00 0.00 99 1012.3
20260831145224 48 360 0.0 2.0 0.00 0.00 0.00 99 1012.4
20260831144725 48 211 1.0 1.0 0.00 0.00 0.00 99 1012.3
20260831144224 48 211 0.0 1.0 0.00 0.00 0.00 99 1012.4
20260831143724 48 360 0.0 1.0 0.00 0.00 0.00 99 1012.4
20260831143024 48 360 0.0 1.0 0.00 0.00 0.00 99 1012.4
20260831142524 48 211 0.0 1.0 0.00 0.00 0.00 99 1012.4
20260831142024 48 360 0.0 1.0 0.00 0.00 0.00 99 1012.3
20260831141524 48 211 1.0 1.0 0.00 0.00 0.00 99 1012.4
20260831141024 48 360 0.0 0.0 0.00 0.00 0.00 99 1012.5
20260831140524 48 360 0.0 0.0 0.00 0.00 0.00 99 1012.5
20260831140024 48 360 0.0 0.0 0.00 0.00 0.00 99 1012.5
20260831135524 48 360 0.0 1.0 0.00 0.00 0.00 99 1012.6
20260831135025 48 360 0.0 1.0 0.00 0.00 0.00 99 1012.6
20260831134524 48 360 0.0 1.0 0.00 0.00 0.00 99 1012.6
20260831134025 48 360 1.0 1.0 0.00 0.00 0.00 99 1012.6
20260831133524 48 360 0.0 0.0 0.00 0.00 0.00 99 1012.6
20260831133025 48 360 0.0 1.0 0.00 0.00 0.00 99 1012.6
20260831132524 48 360 0.0 1.0 0.00 0.00 0.00 99 1012.6
20260831131930 48 360 0.0 1.0 0.00 0.00 0.00 99 1012.6
20260831131425 48 360 0.0 1.0 0.00 0.00 0.00 99 1012.6
20260831130725 48 360 0.0 1.0 0.00 0.00 0.00 99 1012.6
20260831130024 48 360 0.0 1.0 0.00 0.00 0.00 99 1012.6
20260831125525 48 360 1.0 1.0 0.00 0.00 0.00 99 1012.7
20260831125025 48 360 1.0 2.0 0.00 0.00 0.00 99 1012.7
20260831124524 48 360 1.0 2.0 0.00 0.00 0.00 99 1012.7
20260831123825 48 360 1.0 2.0 0.00 0.00 0.00 99 1012.8
20260831123324 48 360 2.0 2.0 0.00 0.00 0.00 99 1012.7
20260831122825 48 360 1.0 1.0 0.00 0.00 0.00 99 1012.8
20260831122325 48 360 0.0 0.0 0.00 0.00 0.00 99 1012.7
20260831121825 48 360 0.0 0.0 0.00 0.00 0.00 99 1012.8
20260831121124 48 210 0.0 1.0 0.00 0.00 0.00 99 1012.8
20260831120624 48 360 0.0 1.0 0.00 0.00 0.00 99 1012.8
20260831120125 48 211 0.0 2.0 0.00 0.00 0.00 99 1012.9
20260831115624 48 360 1.0 2.0 0.00 0.00 0.00 99 1013.0
20260831115124 48 360 1.0 1.0 0.00 0.00 0.00 99 1013.1
20260831114625 48 360 0.0 1.0 0.00 0.00 0.00 99 1013.2
20260831114124 48 360 0.0 1.0 0.00 0.00 0.00 99 1013.2
20260831113625 48 360 0.0 1.0 0.00 0.00 0.00 99 1013.2
20260831113125 48 360 0.0 1.0 0.00 0.00 0.00 99 1013.2
20260831112625 48 360 0.0 1.0 0.00 0.00 0.00 99 1013.2
20260831112124 48 360 0.0 1.0 0.00 0.00 0.00 99 1013.2
20260831111624 48 360 0.0 1.0 0.00 0.00 0.00 99 1013.3
20260831111124 48 360 1.0 1.0 0.00 0.00 0.00 99 1013.3
20260831110624 47 360 1.0 1.0 0.00 0.00 0.00 99 1013.4
20260831105924 47 360 0.0 1.0 0.00 0.00 0.00 99 1013.4
20260831105424 47 360 1.0 1.0 0.00 0.00 0.00 99 1013.4
20260831104924 47 360 0.0 0.0 0.00 0.00 0.00 99 1013.3
20260831104424 47 360 0.0 0.0 0.00 0.00 0.00 99 1013.4
20260831103924 47 360 0.0 1.0 0.00 0.00 0.00 99 1013.5
20260831103424 47 360 0.0 1.0 0.00 0.00 0.00 99 1013.5
20260831102724 46 360 0.0 1.0 0.00 0.00 0.00 98 1013.5
20260831102224 46 360 0.0 1.0 0.00 0.00 0.00 98 1013.6
20260831101725 46 360 0.0 1.0 0.00 0.00 0.00 98 1013.6
20260831101225 46 360 1.0 1.0 0.00 0.00 0.00 98 1013.6
20260831100724 46 360 1.0 1.0 0.00 0.00 0.00 98 1013.7
20260831100225 46 360 0.0 1.0 0.00 0.00 0.00 98 1013.6
20260831095725 46 360 1.0 1.0 0.00 0.00 0.00 98 1013.7
20260831095225 46 360 0.0 0.0 0.00 0.00 0.00 98 1013.7
20260831094724 46 360 0.0 0.0 0.00 0.00 0.00 98 1013.8
20260831094225 46 360 0.0 0.0 0.00 0.00 0.00 98 1013.9
20260831093524 46 360 0.0 0.0 0.00 0.00 0.00 98 1013.9
20260831093024 46 360 0.0 0.0 0.00 0.00 0.00 97 1014.0
20260831092525 46 360 0.0 1.0 0.00 0.00 0.00 97 1014.0
20260831092025 47 360 0.0 1.0 0.00 0.00 0.00 97 1014.0
20260831091525 47 360 0.0 0.0 0.00 0.00 0.00 98 1014.1
20260831091024 47 211 0.0 0.0 0.00 0.00 0.00 98 1014.1
20260831090525 47 360 0.0 0.0 0.00 0.00 0.00 98 1014.3
20260831090025 47 360 0.0 2.0 0.00 0.00 0.00 98 1014.3
20260831085524 47 360 0.0 2.0 0.00 0.00 0.00 97 1014.4
20260831085024 47 360 0.0 2.0 0.00 0.00 0.00 97 1014.4
20260831084524 48 360 2.0 2.0 0.00 0.00 0.00 98 1014.4
20260831084024 48 360 0.0 0.0 0.00 0.00 0.00 98 1014.5
20260831083524 47 360 0.0 1.0 0.00 0.00 0.00 97 1014.6
20260831083024 47 360 0.0 1.0 0.00 0.00 0.00 97 1014.5
20260831082525 48 360 0.0 1.0 0.00 0.00 0.00 97 1014.6
20260831082025 48 360 1.0 1.0 0.00 0.00 0.00 97 1014.6
20260831081524 48 360 0.0 2.0 0.00 0.00 0.00 97 1014.6
20260831081025 48 360 1.0 2.0 0.00 0.00 0.00 97 1014.6
20260831080524 48 360 0.0 1.0 0.00 0.00 0.00 97 1014.6
20260831080024 48 360 0.0 2.0 0.00 0.00 0.00 97 1014.6
20260831075525 48 360 1.0 2.0 0.00 0.00 0.00 96 1014.7
20260831074824 49 360 1.0 1.0 0.00 0.00 0.00 97 1014.5
20260831074125 49 360 0.0 2.0 0.00 0.00 0.00 97 1014.6
20260831073625 49 360 1.0 2.0 0.00 0.00 0.00 97 1014.7
20260831073124 50 360 0.0 1.0 0.00 0.00 0.00 97 1014.9
20260831072625 50 360 0.0 2.0 0.00 0.00 0.00 97 1014.9
20260831072124 50 360 0.0 2.0 0.00 0.00 0.00 97 1014.9
20260831071424 50 360 1.0 2.0 0.00 0.00 0.00 97 1015.1
20260831070725 50 360 0.0 0.0 0.00 0.00 0.00 97 1015.2
20260831070225 50 360 0.0 0.0 0.00 0.00 0.00 96 1015.3
20260831065725 50 360 0.0 1.0 0.00 0.00 0.00 96 1015.3
20260831065225 50 360 0.0 1.0 0.00 0.00 0.00 96 1015.2
20260831064725 51 360 0.0 1.0 0.00 0.00 0.00 96 1015.3
20260831064025 51 360 0.0 1.0 0.00 0.00 0.00 96 1015.3
20260831063524 51 360 1.0 1.0 0.00 0.00 0.00 95 1015.4
20260831062824 52 360 0.0 1.0 0.00 0.00 0.00 96 1015.5
20260831062325 52 360 0.0 1.0 0.00 0.00 0.00 96 1015.6
20260831061824 52 360 0.0 1.0 0.00 0.00 0.00 96 1015.6
20260831061324 52 360 0.0 1.0 0.00 0.00 0.00 95 1015.7
20260831060425 52 360 0.0 1.0 0.00 0.00 0.00 96 1015.7
20260831055924 52 360 1.0 1.0 0.00 0.00 0.00 96 1015.6
20260831055424 52 360 1.0 1.0 0.00 0.00 0.00 96 1015.9
20260831054924 52 360 0.0 1.0 0.00 0.00 0.00 96 1016.0
20260831054424 52 360 1.0 1.0 0.00 0.00 0.00 95 1016.1
20260831053924 52 360 0.0 1.0 0.00 0.00 0.00 94 1016.1
20260831053424 53 360 0.0 2.0 0.00 0.00 0.00 94 1016.1
20260831052725 53 360 1.0 2.0 0.00 0.00 0.00 94 1016.1
20260831052224 53 360 1.0 1.0 0.00 0.00 0.00 95 1016.1
20260831051725 53 360 0.0 2.0 0.00 0.00 0.00 93 1016.1
20260831051224 54 360 0.0 2.0 0.00 0.00 0.00 94 1016.2
20260831050724 54 360 2.0 2.0 0.00 0.00 0.00 93 1016.3
20260831050225 54 360 1.0 1.0 0.00 0.00 0.00 93 1016.4
20260831045724 54 360 0.0 0.0 0.00 0.00 0.00 93 1016.4
20260831045225 54 211 0.0 0.0 0.00 0.00 0.00 92 1016.3
20260831044725 54 211 0.0 0.0 0.00 0.00 0.00 91 1016.4
20260831044224 55 211 0.0 1.0 0.00 0.00 0.00 92 1016.3